Date String (YYYY-MM-DD hh:mm:ss) UTC,Instrument flags,absolute air pressure of the measurement (hPa),sample flow rate (lpm),inlet stack bypass flow (lpm),air temperature of the measurement (°C),ambient temperature measured by the external sensor (°C),aerosol sample conditioner tube jacket temperature (°C),OPC LED temperature (°C),internal box temperature (°C),relative humidity of the measurement (%),span deviation,mass concentration of particles derived from Lorenz-Mie calculation of OPC scattering (μg/m³),mass concentration of particles derived from Lorenz-Mie calculation of OPC scattering (μg/m³),mass concentration of particles derived from Lorenz-Mie calculation of OPC scattering (μg/m³)
DateTimeUTC,F1_M11,P_M11,Q1_M11,Q2_M11,T1_M11,T2_M11,T3_M11,T4_M11,T5_M11,U1_M11,ZSPAN_M11,X0_M11,X2_M11,X1_M11
2024-01-07 07:00:00,SystemResetWarning,0819.3,4.99,000.00,018.8,017.8,000.0,027.2,020.0,7.2,0000.0,0002.09,0001.14,0000.79
2024-01-07 07:01:00,SystemResetWarning,0819.3,5.00,000.00,018.8,017.8,000.0,027.2,020.0,7.2,0000.0,0002.25,0001.21,0000.78
2024-01-07 07:02:00,SystemResetWarning,0819.2,5.00,000.00,018.7,017.8,000.0,027.2,020.0,7.2,0000.0,0002.32,0001.23,0000.79
2024-01-07 07:03:00,SystemResetWarning,0818.8,5.01,000.00,018.7,017.7,000.0,027.2,020.0,7.1,0000.0,0002.35,0001.23,0000.79
2024-01-07 07:04:00,SystemResetWarning,0818.8,5.01,000.00,018.7,017.7,000.0,027.2,020.0,7.1,0000.0,0002.25,0001.24,0000.79
2024-01-07 07:05:00,SystemResetWarning,0818.8,4.99,000.00,018.7,017.7,000.0,027.2,020.0,7.1,0000.0,0002.30,0001.26,0000.78
2024-01-07 07:06:00,SystemResetWarning,0818.8,5.00,000.00,018.7,017.7,000.0,027.2,020.0,7.1,0000.0,0002.37,0001.30,0000.79
2024-01-07 07:07:00,SystemResetWarning,0818.8,5.00,000.00,018.7,017.7,000.0,027.2,020.0,7.1,0000.0,0002.37,0001.31,0000.79
2024-01-07 07:08:00,SystemResetWarning,0818.8,5.00,000.00,018.7,017.7,000.0,027.2,020.0,7.1,0000.0,0002.49,0001.37,0000.80
2024-01-07 07:09:00,SystemResetWarning,0818.8,5.01,000.00,018.7,017.7,000.0,027.2,020.0,7.1,0000.0,0002.54,0001.38,0000.81
2024-01-07 07:10:00,SystemResetWarning,0818.8,5.00,000.00,018.7,017.7,000.0,027.2,020.0,7.1,0000.0,0002.64,0001.40,0000.81
2024-01-07 07:11:00,SystemResetWarning,0818.8,5.00,000.00,018.7,017.6,000.0,027.2,020.0,7.1,0000.0,0002.62,0001.40,0000.81
2024-01-07 07:12:00,SystemResetWarning,0818.8,5.00,000.00,018.7,017.6,000.0,027.2,020.0,7.1,0000.0,0002.49,0001.39,0000.81
2024-01-07 07:13:00,SystemResetWarning,0818.8,5.00,000.00,018.7,017.6,000.0,027.2,020.0,7.1,0000.0,0002.35,0001.35,0000.82
2024-01-07 07:14:00,SystemResetWarning,0818.8,5.00,000.00,018.7,017.6,000.0,027.2,020.0,7.1,0000.0,0002.24,0001.30,0000.82
2024-01-07 07:15:00,SystemResetWarning,0818.8,4.99,000.00,018.7,017.6,000.0,027.2,020.0,7.1,0000.0,0002.35,0001.33,0000.81
2024-01-07 07:16:00,SystemResetWarning,0818.8,4.99,000.00,018.7,017.7,000.0,027.2,020.0,7.1,0000.0,0002.34,0001.33,0000.81
2024-01-07 07:17:00,SystemResetWarning,0818.8,4.99,000.00,018.7,017.7,000.0,027.2,020.0,7.1,0000.0,0002.33,0001.32,0000.81
2024-01-07 07:18:00,SystemResetWarning,0818.8,5.00,000.00,018.7,017.7,000.0,027.2,020.0,7.1,0000.0,0002.30,0001.31,0000.80
2024-01-07 07:19:00,SystemResetWarning,0818.8,5.00,000.00,018.7,017.7,000.0,027.2,020.0,7.1,0000.0,0002.20,0001.26,0000.80
2024-01-07 07:20:00,SystemResetWarning,0818.8,5.01,000.00,018.7,017.7,000.0,027.2,020.0,7.1,0000.0,0002.06,0001.21,0000.78
2024-01-07 07:21:00,SystemResetWarning,0818.8,5.01,000.00,018.7,017.7,000.0,027.2,020.0,7.0,0000.0,0001.94,0001.17,0000.78
2024-01-07 07:22:00,SystemResetWarning,0818.8,5.01,000.00,018.7,017.7,000.0,027.2,020.0,7.0,0000.0,0001.91,0001.16,0000.78
2024-01-07 07:23:00,SystemResetWarning,0818.7,5.00,000.00,018.6,017.7,000.0,027.2,020.0,7.0,0000.0,0001.87,0001.12,0000.77
2024-01-07 07:24:00,SystemResetWarning,0818.7,4.99,000.00,018.6,017.7,000.0,027.2,020.0,7.0,0000.0,0001.88,0001.11,0000.77
2024-01-07 07:25:00,SystemResetWarning,0818.7,5.00,000.00,018.6,017.7,000.0,027.2,020.0,7.0,0000.0,0001.97,0001.15,0000.78
2024-01-07 07:26:00,SystemResetWarning,0818.7,5.00,000.00,018.6,017.7,000.0,027.2,020.0,7.1,0000.0,0001.85,0001.11,0000.78
2024-01-07 07:27:00,SystemResetWarning,0818.7,4.99,000.00,018.6,017.7,000.0,027.1,020.0,7.1,0000.0,0001.74,0001.08,0000.78
2024-01-07 07:28:00,SystemResetWarning,0818.7,5.00,000.00,018.6,017.7,000.0,027.1,020.0,7.1,0000.0,0001.69,0001.05,0000.78
2024-01-07 07:29:00,SystemResetWarning,0818.7,5.00,000.00,018.6,017.7,000.0,027.2,020.0,7.1,0000.0,0001.75,0001.07,0000.78
2024-01-07 07:30:00,SystemResetWarning,0818.7,5.00,000.00,018.7,017.7,000.0,027.2,020.0,7.1,0000.0,0001.73,0001.07,0000.78
2024-01-07 07:31:00,SystemResetWarning,0818.7,5.00,000.00,018.6,017.7,000.0,027.1,020.0,7.1,0000.0,0001.74,0001.09,0000.79
2024-01-07 07:32:00,SystemResetWarning,0818.7,5.00,000.00,018.6,017.7,000.0,027.2,020.0,7.1,0000.0,0001.79,0001.12,0000.80
2024-01-07 07:33:00,SystemResetWarning,0818.7,5.01,000.00,018.6,017.6,000.0,027.2,020.0,7.1,0000.0,0001.77,0001.11,0000.80
2024-01-07 07:34:00,SystemResetWarning,0818.7,5.00,000.00,018.6,017.6,000.0,027.1,020.0,7.1,0000.0,0001.69,0001.09,0000.81
2024-01-07 07:35:00,SystemResetWarning,0818.6,5.00,000.00,018.6,017.6,000.0,027.1,020.0,7.1,0000.0,0001.69,0001.09,0000.80
2024-01-07 07:36:00,SystemResetWarning,0818.6,5.00,000.00,018.6,017.6,000.0,027.1,020.0,7.1,0000.0,0001.96,0001.09,0000.80
2024-01-07 07:37:00,SystemResetWarning,0818.6,5.00,000.00,018.6,017.6,000.0,027.1,020.0,7.1,0000.0,0002.37,0001.10,0000.80
2024-01-07 07:38:00,SystemResetWarning,0818.6,5.00,000.00,018.6,017.6,000.0,027.2,020.0,7.2,0000.0,0002.43,0001.12,0000.81
2024-01-07 07:39:00,SystemResetWarning,0818.6,5.00,000.00,018.7,017.6,000.0,027.2,020.0,7.2,0000.0,0002.43,0001.12,0000.82
2024-01-07 07:40:00,SystemResetWarning,0818.5,5.00,000.00,018.7,017.6,000.0,027.2,020.0,7.2,0000.0,0002.47,0001.11,0000.82
2024-01-07 07:41:00,SystemResetWarning,0818.5,5.00,000.00,018.7,017.6,000.0,027.2,020.0,7.2,0000.0,0002.45,0001.10,0000.82
2024-01-07 07:42:00,SystemResetWarning,0818.5,5.00,000.00,018.7,017.5,000.0,027.2,020.0,7.2,0000.0,0003.19,0001.14,0000.84
2024-01-07 07:43:00,SystemResetWarning,0818.5,5.00,000.00,018.7,017.5,000.0,027.2,020.0,7.2,0000.0,0003.43,0001.13,0000.84
2024-01-07 07:44:00,SystemResetWarning,0818.5,5.00,000.00,018.6,017.5,000.0,027.2,020.0,7.2,0000.0,0003.44,0001.14,0000.84
2024-01-07 07:45:00,SystemResetWarning,0818.4,5.00,000.00,018.6,017.6,000.0,027.2,020.0,7.2,0000.0,0003.46,0001.15,0000.84
2024-01-07 07:46:00,SystemResetWarning,0818.4,4.99,000.00,018.6,017.6,000.0,027.2,020.0,7.2,0000.0,0003.38,0001.13,0000.85
2024-01-07 07:47:00,SystemResetWarning,0818.4,4.99,000.00,018.7,017.9,000.0,027.1,020.3,7.2,0000.0,0003.14,0001.12,0000.85
2024-01-07 07:48:00,SystemResetWarning,0818.4,5.00,000.00,018.8,018.7,000.0,027.1,020.6,7.2,0000.0,0002.70,0001.12,0000.84
2024-01-07 07:49:00,SystemResetWarning,0818.4,5.00,000.00,018.9,018.8,000.0,027.1,020.5,7.2,0000.0,0002.65,0001.10,0000.83
2024-01-07 07:50:00,SystemResetWarning,0818.4,5.00,000.00,018.9,018.7,000.0,027.1,020.2,7.2,0000.0,0002.63,0001.09,0000.82
2024-01-07 07:51:00,SystemResetWarning,0818.3,5.00,000.00,018.9,018.6,000.0,027.1,020.1,7.2,0000.0,0002.51,0001.07,0000.82
2024-01-07 07:52:00,SystemResetWarning,0818.3,4.99,000.00,018.8,018.4,000.0,027.1,020.0,7.1,0000.0,0002.68,0001.08,0000.81
2024-01-07 07:53:00,SystemResetWarning,0818.3,5.00,000.00,018.8,018.3,000.0,027.1,020.0,7.2,0000.0,0002.04,0001.05,0000.80
2024-01-07 07:54:00,SystemResetWarning,0818.3,5.00,000.00,018.8,018.2,000.0,027.2,020.0,7.2,0000.0,0001.79,0001.04,0000.79
2024-01-07 07:55:00,SystemResetWarning,0818.3,5.01,000.00,018.8,018.1,000.0,027.2,020.0,7.2,0000.0,0001.76,0001.02,0000.78
2024-01-07 07:56:00,SystemResetWarning,0818.3,5.01,000.00,018.8,018.1,000.0,027.2,020.0,7.2,0000.0,0001.74,0001.01,0000.78
2024-01-07 07:57:00,SystemResetWarning,0818.3,5.01,000.00,018.8,018.0,000.0,027.2,020.0,7.3,0000.0,0001.74,0001.00,0000.78
2024-01-07 07:58:00,SystemResetWarning,0818.2,4.99,000.00,018.7,018.0,000.0,027.2,020.0,7.3,0000.0,0001.79,0001.01,0000.76
2024-01-07 07:59:00,SystemResetWarning,0818.2,4.98,000.00,018.7,018.0,000.0,027.2,020.0,7.4,0000.0,0001.82,0001.01,0000.77
